Location: Cronhütte
(48.9135°N, 9.6869°E)
Time: 21:07:23
(UTC+00:00)

AQUA - Pass Details

Date: 23 May 2024
Orbit: 693 x 697 km, 98.3° (Epoch: 14 June)

Event Time Altitude Azimuth Distance (km) Brightness Sun altitude
Rises 01:57:30 0° 14° (NNE) 3,086 8.5 -11.9°
Reaches altitude 10° 01:59:46 10° 15° (NNE) 2,164 7.5 -11.7°
Maximum altitude 02:04:31 84° 105° (ESE) 706 3.8 -11.2°
Enters shadow 02:09:02 11° 193° (SSW) 2,072 5.7 -10.7°
